Theta_e
311 311 308 308 308 309 308 302 302 299 297 296 296 295 295 294 294 294 294 294 294 293 293 293 293 294 296 297 296 295 295 296 294 290 288 288 287 287 286 286 285 285 286
310 309 307 307 307 307 301 301 298 296 296 296 296 295 294 293 293 294 294 293 293 293 293 292 292 293 293 293 293 293 292 292 291 290 287 287 286 286 286 285 284 284 284
308 306 305 305 306 303 300 297 295 296 295 296 294 293 293 294 293 293 293 293 292 292 292 292 291 291 291 291 291 291 291 290 289 289 288 286 286 285 285 285 285 284 282
305 303 304 304 304 303 301 300 300 299 298 293 292 292 293 293 292 292 292 292 292 291 291 291 291 291 290 290 290 290 290 289 289 288 287 287 286 285 285 285 285 284 282
303 302 303 303 303 301 300 300 297 294 293 292 292 292 292 292 291 291 291 291 291 290 290 290 290 290 289 289 289 288 288 288 288 287 287 286 286 285 285 284 283 283 282
302 301 302 301 301 301 301 299 298 295 292 291 291 292 291 291 291 291 291 290 289 289 289 289 289 288 288 288 288 287 288 287 287 287 286 286 285 284 284 284 283 283 285
301 300 300 300 302 301 300 296 293 293 292 292 291 291 291 291 290 290 289 289 288 288 287 287 287 287 287 287 287 286 286 286 286 286 286 285 285 284 283 283 282 283 283
300 301 300 300 301 299 297 296 295 293 293 293 291 290 291 290 289 289 289 288 288 287 286 285 286 285 286 286 285 285 285 284 284 284 284 284 284 283 282 281 281 281 281
298 301 301 301 300 300 299 295 294 293 293 292 291 291 290 289 289 289 290 288 287 286 286 285 285 285 285 285 284 284 284 284 284 284 284 284 283 283 282 281 280 281 282
300 300 301 300 299 298 295 294 294 293 293 291 293 292 295 293 288 287 287 286 286 286 285 285 284 285 284 284 283 283 283 283 283 283 283 283 283 282 281 280 279 280 280
304 303 300 300 299 298 295 294 293 292 294 293 292 292 289 289 289 290 289 288 285 285 285 284 284 283 283 283 282 282 282 282 282 282 281 281 281 280 280 279 278 278 278
301 305 304 302 300 296 295 292 291 291 292 293 294 291 289 292 290 289 284 284 285 285 284 284 283 283 282 282 282 282 281 281 281 281 280 280 280 279 279 278 277 277 276
300 302 302 301 299 297 297 294 291 291 291 291 288 289 290 287 286 286 283 283 283 284 284 283 282 282 282 282 282 281 281 281 280 280 279 279 279 278 277 277 277 276 276
300 298 298 298 298 297 296 296 291 290 290 290 291 290 289 287 285 283 282 283 283 283 283 282 282 282 281 282 281 280 280 280 280 279 279 279 278 277 276 275 275 274 274
297 295 294 295 296 295 294 295 292 294 294 295 291 290 290 287 285 285 285 284 284 284 283 283 282 282 281 281 280 280 280 279 279 279 278 278 278 277 276 276 275 274 274
293 293 293 293 292 293 294 293 293 294 294 293 293 291 290 288 286 287 285 285 285 284 283 284 283 282 281 280 279 280 279 279 279 278 278 278 277 277 276 276 275 274 274
294 293 292 292 292 293 292 292 292 292 293 292 291 290 289 287 285 287 285 286 284 284 284 283 283 283 281 280 280 279 279 279 278 278 278 277 277 277 276 275 275 274 273
294 293 292 292 293 293 292 292 293 292 290 288 287 286 287 285 285 286 286 286 284 283 283 283 282 282 282 281 280 280 279 278 278 278 278 277 277 276 275 275 274 274 274
295 294 294 293 293 294 293 293 293 290 288 287 286 286 285 285 287 286 286 285 285 284 283 283 283 282 282 281 280 280 279 279 278 278 278 277 277 276 276 275 274 275 274
296 295 295 294 294 293 292 292 290 288 287 288 287 287 286 287 286 285 285 285 284 283 283 283 283 282 282 281 280 279 279 278 278 277 277 277 276 276 275 275 274 273 273
297 295 295 294 294 293 293 291 289 288 288 288 287 288 287 287 286 285 284 284 284 284 283 282 282 282 281 280 280 280 280 279 279 278 278 277 276 276 275 275 274 273 272
297 297 296 295 294 293 292 291 290 288 288 288 287 288 288 287 287 286 285 284 285 284 283 283 282 282 281 281 281 280 280 280 279 279 278 277 277 277 276 274 273 272 271
297 297 295 294 294 293 292 291 290 289 288 288 288 288 287 287 287 286 286 285 284 284 284 284 283 283 282 282 281 281 281 280 279 279 279 278 278 277 276 274 272 271 271
296 296 295 294 293 293 292 291 289 289 288 288 288 288 287 287 286 286 285 285 285 285 285 284 284 283 282 282 282 281 281 280 280 280 279 278 277 277 275 274 272 271 269
295 294 294 294 293 292 291 290 289 289 288 288 288 287 287 286 286 286 286 286 285 285 285 284 284 284 283 282 281 281 281 281 280 280 279 278 277 276 275 273 271 269 268
294 293 293 293 292 292 291 290 289 288 288 287 287 287 287 287 287 286 286 286 285 285 284 284 284 283 283 282 282 282 281 281 280 279 278 277 276 275 274 272 271 268 267
Wind_Speed
37 40 45 50 49 45 42 39 40 39 37 35 36 34 31 30 27 25 23 22 20 18 18 18 17 16 15 15 15 13 10 8 12 11 10 10 8 6 4 4 2 4 5
41 41 47 48 48 41 38 41 39 36 36 32 29 31 33 29 27 25 24 23 21 21 19 17 18 17 16 16 13 13 13 11 12 13 12 10 8 8 6 5 4 2 1
40 42 44 45 43 39 36 31 32 28 32 35 35 33 33 29 26 24 22 21 22 21 20 21 20 19 18 17 16 14 12 11 11 12 12 10 9 8 5 5 3 1 4
36 40 41 40 41 41 39 36 39 34 28 33 32 32 28 26 25 23 22 22 20 20 20 20 19 18 16 16 15 14 14 13 13 12 12 11 9 8 8 7 3 5 3
36 37 39 43 40 41 38 34 32 31 32 30 30 27 25 23 22 22 21 20 20 21 21 20 20 20 20 18 16 15 13 12 13 12 11 10 9 8 7 5 5 5 6
28 29 32 38 40 38 38 36 34 36 32 31 29 28 26 25 24 22 20 20 21 21 21 21 21 21 21 18 15 16 15 13 12 11 10 9 8 7 5 4 2 3 6
22 19 27 33 37 38 39 37 38 35 34 32 29 28 27 25 21 19 17 18 18 18 18 20 21 21 19 17 16 13 12 11 11 9 9 8 7 5 4 2 1 2 4
30 28 20 30 33 36 38 37 35 34 32 30 29 27 25 23 22 20 19 18 18 18 18 18 19 21 19 18 16 14 13 12 12 9 8 7 6 4 3 3 2 2 2
23 22 24 30 31 35 36 35 36 34 31 30 27 25 22 19 18 17 18 20 21 23 22 17 17 16 19 17 15 13 12 11 11 7 5 4 3 2 2 2 1 1 5
11 21 24 30 33 34 34 34 33 33 31 29 27 24 22 22 24 24 22 23 23 23 22 20 20 18 18 15 13 12 11 11 9 6 5 4 2 1 2 1 3 1 2
15 16 26 29 30 31 33 32 32 31 29 29 27 25 23 23 23 25 25 24 26 26 23 22 22 19 17 15 14 13 11 9 7 5 4 2 1 1 2 2 3 3 2
20 24 24 28 32 34 34 31 29 29 30 26 24 25 24 22 22 24 26 25 21 21 22 22 21 20 18 15 13 10 9 8 7 6 5 3 2 2 2 3 4 5 6
17 25 31 35 33 36 35 33 29 27 28 26 26 25 23 24 25 23 26 21 20 19 19 19 18 18 17 16 13 11 10 9 8 7 6 3 2 3 3 4 4 5 6
17 22 26 33 37 35 34 35 35 30 28 26 25 25 25 25 27 29 26 25 23 21 19 19 19 17 15 15 13 13 12 11 10 8 6 3 2 1 3 4 5 6 5
21 25 28 31 36 37 36 34 34 32 30 27 25 24 27 28 30 32 31 30 27 25 25 23 22 20 17 15 15 14 13 12 11 9 7 4 2 0 2 4 5 6 3
24 27 30 32 35 37 34 35 29 28 27 22 21 22 23 25 30 29 28 27 28 27 26 23 21 18 17 15 14 15 14 14 12 11 8 5 4 1 1 4 6 5 4
24 27 29 31 33 36 35 34 31 25 21 20 18 18 18 23 26 26 29 27 27 26 24 21 19 18 16 15 14 14 14 14 14 12 10 8 6 4 2 3 4 6 5
22 25 28 31 34 36 33 30 29 30 30 26 19 20 19 22 23 25 27 27 29 27 21 19 18 17 16 15 15 14 14 14 16 15 13 12 9 7 5 5 5 6 6
22 24 26 29 31 32 31 30 28 27 26 27 26 23 24 23 21 26 28 29 31 30 22 19 18 17 17 16 16 16 16 15 15 16 16 15 13 10 9 8 8 11 12
24 25 27 30 30 31 30 27 27 28 28 29 31 32 30 28 28 28 28 26 25 23 21 19 18 18 17 17 18 18 17 16 17 18 17 16 15 13 12 11 10 9 10
26 27 27 28 29 29 29 28 28 30 31 32 32 34 35 35 32 29 28 28 24 22 20 18 18 18 18 19 18 17 17 17 17 17 17 17 18 18 15 14 12 12 10
24 25 24 26 27 27 28 27 29 28 27 29 31 31 31 31 29 26 24 23 23 20 18 18 17 17 18 19 20 20 17 18 18 18 18 19 20 20 19 17 15 12 11
23 23 24 25 24 26 26 25 27 26 26 27 29 30 31 28 27 25 23 22 20 21 19 18 18 18 19 19 20 19 18 17 16 17 18 19 21 22 20 17 15 12 12
21 22 24 25 25 25 26 25 26 26 27 27 27 28 29 27 24 21 19 19 20 19 19 19 19 18 18 18 18 19 18 17 18 18 18 20 21 21 20 17 14 14 12
18 20 22 23 25 25 26 26 27 28 28 28 27 26 26 25 22 21 21 19 19 19 19 19 19 20 20 19 19 19 20 18 18 19 19 19 20 19 17 18 15 11 14
17 19 20 22 24 25 26 28 29 29 29 27 26 26 25 25 23 22 21 21 20 20 20 20 20 20 20 21 21 22 20 19 18 18 16 17 17 18 19 17 17 12 12
Wind_Direction
240 235 228 220 210 206 202 203 195 193 189 189 193 185 191 195 189 186 186 189 188 190 188 189 188 180 170 170 173 172 170 155 160 160 174 178 168 162 158 155 127 138 322
235 229 226 222 208 199 193 194 191 188 186 187 193 188 193 190 188 188 186 183 184 182 180 177 176 172 170 168 167 165 169 161 167 169 169 171 173 171 168 167 169 149 268
234 229 224 216 200 189 186 184 182 181 183 185 189 191 190 188 188 187 185 182 184 182 181 179 175 172 174 172 170 165 167 158 162 173 174 170 178 165 173 186 200 253 278
232 222 220 199 185 185 183 186 180 181 183 192 183 192 188 185 187 185 186 185 184 180 180 179 180 181 181 181 183 179 173 168 167 177 177 180 183 182 179 178 213 205 223
221 214 201 187 188 182 177 184 170 178 189 188 186 184 183 184 187 187 183 182 183 183 181 181 181 183 183 179 176 174 170 170 173 174 174 178 179 180 189 191 213 242 242
212 200 194 193 189 183 182 180 174 182 181 182 182 182 181 185 187 187 185 183 186 187 183 184 184 183 182 181 179 177 171 168 175 171 169 185 178 177 181 190 200 234 256
208 200 200 195 189 185 181 177 179 179 180 182 181 182 185 188 186 186 185 188 187 181 178 178 177 182 179 175 172 174 169 177 179 168 176 178 179 180 178 140 246 285 260
208 195 196 190 180 176 174 179 182 181 181 181 181 180 185 186 183 185 187 187 184 172 168 173 181 174 179 172 171 171 168 171 174 173 168 173 180 181 180 185 199 258 264
203 200 191 180 178 179 180 179 180 178 180 183 184 186 186 177 187 188 195 192 180 177 179 172 171 171 178 172 165 162 172 177 180 187 193 206 213 215 215 142 207 166 248
184 188 180 180 182 178 176 178 179 180 179 178 182 187 202 196 189 186 188 186 187 183 176 179 177 186 178 175 168 171 171 175 178 186 194 196 208 237 276 239 202 172 247
191 203 186 185 184 184 177 177 175 176 181 181 182 188 188 192 185 186 189 192 190 185 187 188 190 184 182 180 175 177 188 191 192 201 209 212 240 282 296 292 277 254 227
204 192 194 196 191 190 183 174 173 176 180 180 187 184 185 189 188 191 194 193 192 197 194 193 192 188 186 185 190 192 197 199 199 202 205 223 267 303 314 308 300 294 284
202 195 198 200 195 193 193 184 171 174 179 177 177 180 181 181 185 192 192 189 191 190 193 191 188 188 186 192 195 202 202 202 198 198 201 210 265 309 323 323 314 310 303
209 200 196 192 196 190 192 188 184 177 176 183 187 182 183 182 184 185 186 187 184 183 181 181 187 189 188 198 198 195 197 198 196 197 201 205 234 312 352 350 342 337 335
201 199 194 193 193 188 190 192 189 201 200 197 190 191 192 185 190 189 189 188 186 185 183 185 185 187 190 194 194 195 200 198 200 199 200 202 197 33 9 359 354 344 330
192 192 193 191 187 185 187 186 197 202 201 201 211 210 206 199 193 191 189 192 191 190 189 189 188 191 192 193 196 199 203 202 203 202 202 199 197 190 331 353 356 347 323
199 191 189 187 182 180 184 185 185 191 199 203 200 200 207 198 194 197 190 193 192 192 195 194 199 201 196 195 197 203 205 206 208 209 208 208 209 220 272 299 321 333 314
197 192 186 183 182 183 182 182 181 179 177 182 186 191 189 192 197 195 195 191 191 198 202 201 201 203 199 202 202 201 203 205 213 215 218 223 229 237 244 253 269 291 302
186 184 185 185 185 185 186 184 182 179 176 175 175 179 178 188 189 189 195 197 198 200 200 204 206 205 205 207 209 207 208 208 220 222 227 232 236 231 238 247 258 277 300
180 180 181 184 182 183 181 178 175 177 179 180 177 175 175 178 180 187 197 199 203 204 204 208 209 209 208 209 216 218 218 215 221 226 227 228 231 235 240 246 253 260 279
176 179 181 181 180 181 181 181 177 180 183 180 179 181 181 184 186 189 196 202 207 209 208 206 207 208 211 214 213 211 215 221 222 228 228 231 237 243 244 243 252 260 269
174 174 179 180 181 182 183 184 183 185 183 180 187 186 188 192 196 198 201 209 215 211 211 208 204 211 217 219 220 223 226 227 229 232 232 234 242 251 249 249 246 251 259
174 175 178 183 187 185 184 185 185 183 178 181 191 188 191 198 203 207 211 214 211 207 208 208 212 217 221 224 226 230 232 233 234 237 241 245 251 250 251 242 241 251 256
179 183 186 188 188 188 189 188 188 181 182 187 191 194 198 201 204 204 202 202 204 208 213 218 221 226 228 231 233 235 234 231 242 253 256 251 252 251 246 243 243 252 253
188 189 192 192 192 191 191 190 186 185 187 193 196 199 200 203 204 203 203 205 208 211 216 220 225 229 233 236 238 239 242 247 253 258 259 254 248 248 244 251 251 244 260
195 196 196 195 193 193 192 190 189 191 194 197 200 202 203 202 204 206 207 210 212 217 221 224 227 231 233 236 239 244 246 247 250 255 252 247 248 251 254 252 256 246 252